Panda — PBCS — position and weather

sailwx.info

Track history (hours):
 
Tides and Currents Weather Stations Pressure Air Temp Water Temp Dewpoint Dewpoint Depression Visibility Wind Speed Wind Dir Waves Ship Positions

Panda

Last reported at 2014-Sep-03 02:30 UTC. Time now 2014-Sep-03 05:04 UTC.
Position N 38°06' W 000°03'.

Length 89 m; draft 3 m.

Type: Cargo ship. MMSI: 245014000.

Date/timePositionNaut miles runAvg speedWind from/ knotsBaromVisibWave heightAir tempDewpointWater temp
2014-Sep-03 02:30N 38°06' W 000°03'9 9.4
2014-Sep-03 01:33N 37°59' W 000°09'19 9.5
2014-Sep-02 23:30N 37°43' W 000°23'9 9.4
2014-Sep-02 22:33N 37°35' W 000°29'10 9.6
2014-Sep-02 21:29N 37°28' W 000°38'9 9.7
2014-Sep-02 20:33N 37°22' W 000°47'  
2014-Aug-30 07:29N 37°27' W 000°44'10 9.7
2014-Aug-30 06:27N 37°34' W 000°34'8 9.1
2014-Aug-30 05:33N 37°41' W 000°28'112 7.8
2014-Aug-29 15:14N 39°31' W 000°08'62 1.8
2014-Aug-28 04:24N 39°46' E 001°10'19 9.8
2014-Aug-28 02:30N 39°49' E 001°34'9 9.5
2014-Aug-28 01:33N 39°50' E 001°46'9 9.4
2014-Aug-28 00:33N 39°52' E 001°58'9 9.3
2014-Aug-27 23:34N 39°53' E 002°10'9 9.2
2014-Aug-27 22:33N 39°55' E 002°22'9 9.5
2014-Aug-27 21:33N 39°56' E 002°34'10 9.7
2014-Aug-27 20:33N 39°57' E 002°46'29 9.3
2014-Aug-27 17:24N 39°57' E 003°25'8 9.5
2014-Aug-27 16:32N 39°55' E 003°35'10 9.8
2014-Aug-27 15:29N 39°52' E 003°48'90 9.9
2014-Aug-27 06:24N 39°46' E 005°45'10 9.4
2014-Aug-27 05:22N 39°47' E 005°58'21 9.3
2014-Aug-27 03:05N 39°47' E 006°25'5 9.0
2014-Aug-27 02:30N 39°47' E 006°32'18 9.3
2014-Aug-27 00:33N 39°48' E 006°56'58 9.6
2014-Aug-26 18:29N 39°49' E 008°11'9 9.7
2014-Aug-26 17:33N 39°50' E 008°23'8 0.9
2014-Aug-26 08:09N 39°52' E 008°33'0 0.0
2014-Aug-26 07:33N 39°52' E 008°33'0 0.0
2014-Aug-26 03:03N 39°52' E 008°33'  
Track history (hours):
 
Tides and Currents Weather Stations Pressure Air Temp Water Temp Dewpoint Dewpoint Depression Visibility Wind Speed Wind Dir Waves Ship Positions

Panda

Last reported at 2014-Sep-03 02:30 UTC. Time now 2014-Sep-03 05:04 UTC.
Position N 38°06' W 000°03'.

Length 89 m; draft 3 m.

Type: Cargo ship. MMSI: 245014000.

Date/timePositionNaut miles runAvg speedWind from/ knotsBaromVisibWave heightAir tempDewpointWater temp
2014-Sep-03 02:30N 38°06' W 000°03'9 9.4
2014-Sep-03 01:33N 37°59' W 000°09'19 9.5
2014-Sep-02 23:30N 37°43' W 000°23'9 9.4
2014-Sep-02 22:33N 37°35' W 000°29'10 9.6
2014-Sep-02 21:29N 37°28' W 000°38'9 9.7
2014-Sep-02 20:33N 37°22' W 000°47'  
2014-Aug-30 07:29N 37°27' W 000°44'10 9.7
2014-Aug-30 06:27N 37°34' W 000°34'8 9.1
2014-Aug-30 05:33N 37°41' W 000°28'112 7.8
2014-Aug-29 15:14N 39°31' W 000°08'62 1.8
2014-Aug-28 04:24N 39°46' E 001°10'19 9.8
2014-Aug-28 02:30N 39°49' E 001°34'9 9.5
2014-Aug-28 01:33N 39°50' E 001°46'9 9.4
2014-Aug-28 00:33N 39°52' E 001°58'9 9.3
2014-Aug-27 23:34N 39°53' E 002°10'9 9.2
2014-Aug-27 22:33N 39°55' E 002°22'9 9.5
2014-Aug-27 21:33N 39°56' E 002°34'10 9.7
2014-Aug-27 20:33N 39°57' E 002°46'29 9.3
2014-Aug-27 17:24N 39°57' E 003°25'8 9.5
2014-Aug-27 16:32N 39°55' E 003°35'10 9.8
2014-Aug-27 15:29N 39°52' E 003°48'90 9.9
2014-Aug-27 06:24N 39°46' E 005°45'10 9.4
2014-Aug-27 05:22N 39°47' E 005°58'21 9.3
2014-Aug-27 03:05N 39°47' E 006°25'5 9.0
2014-Aug-27 02:30N 39°47' E 006°32'18 9.3
2014-Aug-27 00:33N 39°48' E 006°56'58 9.6
2014-Aug-26 18:29N 39°49' E 008°11'9 9.7
2014-Aug-26 17:33N 39°50' E 008°23'8 0.9
2014-Aug-26 08:09N 39°52' E 008°33'0 0.0
2014-Aug-26 07:33N 39°52' E 008°33'0 0.0
2014-Aug-26 03:03N 39°52' E 008°33'  

Dump ship's entire track history